Погода в Краснополье

Россия / Тульская область     53°53′26″N   38°35′48″E
темп.,
°C
ветер,
м/с
пор.,
м/с
влажн.,
%
обл.,
%
осадки,
мм/ч
давл.,
гПа
погр.,
м
2 марта, вт
вт200:000з71392100 0.0 1018720
03:00+1з71492100 0.0 1016740
06:00+1з71393100 0.0 1013772
09:00+1з71498100 0.1 1011581
12:00+1зсз71399100 0.1 1010666
15:00+1зсз61199100 0.3 1009655
18:000сз51192100 0.1 1009503
21:00−1сз5129193 0.4 1011381
3 марта, ср
ср300:00−2сз5129497 0.2 1012487
03:00−3сз6149197 0.3 1014570
06:00−4ссз6139194 0.2 1015673
09:00−6сз6148773 0.2 1017610
12:00−3сз611810 0.0 1017949
15:00−1зсз6108614 0.0 1017859
18:00−2зсз6119098 0.1 1015697
21:00−2з5129196 0.1 1015578
4 марта, чт
чт400:00−2з6129298 0.1 1013702
03:00−2з7149299 0.1 1011547
06:00−1зюз7159499 0.1 1008580
09:00−1зюз8168793 0.1 1006666
12:000зюз8138998 0.0 1004902
15:00+1зюз7129099 0.1 1002908
18:00+1зюз51294100 0.0 1000640
21:00+1з51098100 0.1 999479
5 марта, пт
пт500:000зсз51097100 0.4 999495
03:00−4с4995100 0.8 1002356
06:00−6сз489594 0.1 1005250
09:00−7сз359681 0.1 1008188
12:00−4сз349031 0.0 1009454
15:00−3з348460 0.1 1011662
18:00−5зюз349069 0.1 101262
21:00−8зсз378883 0.1 1014130
6 марта, сб
сб600:00−9сз348967 0.0 101556
03:00−10сз348951 0.0 101650
06:00−11сз338958 0.0 101639
09:00−10зсз249028 0.0 1016122
12:00−6зсз35870 0.0 1016354
15:00−5зсз358513 0.0 1016735
18:00−8з339062 0.0 101527
21:00−9з349539 0.0 101657